Darstellungsparameter: Aktuell verwendete Einstellungen:
Skalierung der Graphiken ... ?
xyx+y,   Skalierungsfaktor:      Skalierung: Modus: x, Faktor: 1
Darstellungszeitraum ... ?
Vom - - bis: - -   Zeitraum: 28.02.2021 - 28.02.2021
Min/Max/Avg-Anzeige ... ?
Zeige MMA aktuell
Zeige MMA Monat
Zeige MMA alles
Zeige --A aktuell
Zeige --A Monat
Zeige --A alles
Keine MMA-Anzeige
MMA:
Keine MMA-Graphiken
MMA-Basis: 28.02.2021 - 28.02.2021
Quicknavigation für Darstellung... ?
Tage:      1T, 2T, 3T, 5T -1T -2T -3T -5T +1T +2T +3T +5T
Wochen: 1W, 2W, 3W -1W -2W -3W +1W +2W +3W
Monate: 1M, 3M, 6M -1M -3M -6M +1M +3M +6M
Jahre:    1J, 3J, 5J, 10J -1J -3J -5J -10J +1J +3J +5J +10J
Nutze für die Darstellung ... ?
Originaldaten oder Mittelwerte auf ...
Stundenbasis Tagesbasis Wochenbasis
Monatsbasis Jahresbasis      Datenbasis: Original-Daten
Darstellen als:
Statistik (Auto) Statistik J:M      Darstellung:

Der gewünschte Datumsbereich war nicht gültig/verfügbar und wurde korrigiert....
Das angegebene Enddatum (28.08.2022 23:59:59) liegt in der Zukunft.
Das angegebene Startdatum (28.08.2022 00:00:00) liegt in der Zukunft.


Zur Graphik,    zurück zur Übersicht aller Sensoren.
 
Tabellarische Datenbersicht: ?
 
Sensor: Nr:Datum:Temp:Feuchte:Taupunkt:
Aussen-T/F 1 28-02-2021 01:00:00 5.8 C 81 % 2.8 C
2 28-02-2021 01:05:00 5.8 C 81 % 2.8 C
3 28-02-2021 01:10:00 5.8 C 81 % 2.8 C
4 28-02-2021 01:15:00 5.8 C 81 % 2.8 C
5 28-02-2021 01:20:00 5.8 C 80 % 2.62 C
6 28-02-2021 01:25:00 5.8 C 81 % 2.8 C
7 28-02-2021 01:30:00 5.8 C 80 % 2.62 C
8 28-02-2021 01:35:00 5.8 C 80 % 2.62 C
9 28-02-2021 01:40:00 5.8 C 80 % 2.62 C
10 28-02-2021 01:45:00 5.9 C 79 % 2.54 C
11 28-02-2021 01:50:00 5.9 C 80 % 2.72 C
12 28-02-2021 01:55:00 5.9 C 80 % 2.72 C
13 28-02-2021 02:00:00 5.8 C 80 % 2.62 C
14 28-02-2021 02:05:00 5.8 C 80 % 2.62 C
15 28-02-2021 02:10:00 5.8 C 80 % 2.62 C
16 28-02-2021 02:15:00 5.7 C 80 % 2.53 C
17 28-02-2021 02:20:00 5.7 C 80 % 2.53 C
18 28-02-2021 02:25:00 5.7 C 81 % 2.7 C
19 28-02-2021 02:30:00 5.7 C 81 % 2.7 C
20 28-02-2021 02:35:00 5.6 C 81 % 2.6 C
21 28-02-2021 02:40:00 5.6 C 79 % 2.25 C
22 28-02-2021 02:45:00 5.6 C 79 % 2.25 C
23 28-02-2021 02:50:00 5.6 C 80 % 2.43 C
24 28-02-2021 02:55:00 5.6 C 80 % 2.43 C
25 28-02-2021 03:00:00 5.6 C 80 % 2.43 C
Sensor: Nr:Datum:Temp:Feuchte:Taupunkt:
Aussen-T/F 26 28-02-2021 03:05:00 5.6 C 79 % 2.25 C
27 28-02-2021 03:10:00 5.5 C 79 % 2.16 C
28 28-02-2021 03:15:00 5.5 C 79 % 2.16 C
29 28-02-2021 03:20:00 5.4 C 79 % 2.06 C
30 28-02-2021 03:25:00 5.4 C 78 % 1.88 C
31 28-02-2021 03:30:00 5.4 C 78 % 1.88 C
32 28-02-2021 03:35:00 5.4 C 77 % 1.7 C
33 28-02-2021 03:40:00 5.4 C 78 % 1.88 C
34 28-02-2021 03:45:00 5.4 C 78 % 1.88 C
35 28-02-2021 03:50:00 5.3 C 78 % 1.78 C
36 28-02-2021 03:55:00 5.3 C 78 % 1.78 C
37 28-02-2021 04:00:00 5.2 C 78 % 1.69 C
38 28-02-2021 04:05:00 5.2 C 78 % 1.69 C
39 28-02-2021 04:10:00 5.2 C 78 % 1.69 C
40 28-02-2021 04:15:00 5.2 C 79 % 1.86 C
41 28-02-2021 04:20:00 5.1 C 79 % 1.77 C
42 28-02-2021 04:25:00 5.1 C 80 % 1.94 C
43 28-02-2021 04:30:00 5 C 80 % 1.84 C
44 28-02-2021 04:35:00 4.9 C 81 % 1.92 C
45 28-02-2021 04:40:00 4.9 C 80 % 1.75 C
46 28-02-2021 04:45:00 5 C 80 % 1.84 C
47 28-02-2021 04:50:00 5 C 80 % 1.84 C
48 28-02-2021 04:55:00 5 C 80 % 1.84 C
49 28-02-2021 05:00:00 4.9 C 81 % 1.92 C
50 28-02-2021 05:05:00 4.9 C 80 % 1.75 C
Sensor: Nr:Datum:Temp:Feuchte:Taupunkt:
Aussen-T/F 51 28-02-2021 05:10:00 4.9 C 80 % 1.75 C
52 28-02-2021 05:15:00 5 C 80 % 1.84 C
53 28-02-2021 05:20:00 5 C 80 % 1.84 C
54 28-02-2021 05:25:00 5 C 80 % 1.84 C
55 28-02-2021 05:30:00 4.9 C 81 % 1.92 C
56 28-02-2021 05:35:00 4.7 C 81 % 1.73 C
57 28-02-2021 05:40:00 4.6 C 81 % 1.63 C
58 28-02-2021 05:45:00 4.5 C 81 % 1.53 C
59 28-02-2021 05:50:00 4.4 C 81 % 1.43 C
60 28-02-2021 05:55:00 4.3 C 82 % 1.51 C
61 28-02-2021 06:00:00 4.3 C 82 % 1.51 C
62 28-02-2021 06:05:00 4.2 C 83 % 1.58 C
63 28-02-2021 06:10:00 4.1 C 83 % 1.48 C
64 28-02-2021 06:15:00 3.9 C 83 % 1.28 C
65 28-02-2021 06:20:00 3.6 C 83 % 0.99 C
66 28-02-2021 06:25:00 3.3 C 83 % 0.7 C
67 28-02-2021 06:30:00 3.1 C 84 % 0.67 C
68 28-02-2021 06:35:00 2.9 C 84 % 0.47 C
69 28-02-2021 06:40:00 2.7 C 85 % 0.44 C
70 28-02-2021 06:45:00 2.6 C 85 % 0.34 C
71 28-02-2021 06:50:00 2.4 C 85 % 0.14 C
72 28-02-2021 06:55:00 2.3 C 86 % 0.21 C
73 28-02-2021 07:00:00 2.2 C 86 % 0.11 C
74 28-02-2021 07:05:00 2.1 C 87 % 0.17 C
75 28-02-2021 07:10:00 2 C 87 % 0.07 C
Sensor: Nr:Datum:Temp:Feuchte:Taupunkt:
Aussen-T/F 76 28-02-2021 07:15:00 1.9 C 88 % 0.13 C
77 28-02-2021 07:20:00 1.8 C 87 % -0.13 C
78 28-02-2021 07:25:00 1.6 C 87 % -0.32 C
79 28-02-2021 07:30:00 1.4 C 88 % -0.36 C
80 28-02-2021 07:35:00 1.3 C 88 % -0.46 C
81 28-02-2021 07:40:00 1.3 C 89 % -0.31 C
82 28-02-2021 07:45:00 1.2 C 89 % -0.41 C
83 28-02-2021 07:50:00 1.1 C 89 % -0.51 C
84 28-02-2021 07:55:00 1.1 C 90 % -0.35 C
85 28-02-2021 08:00:00 1 C 90 % -0.45 C
86 28-02-2021 08:05:00 1 C 90 % -0.45 C
87 28-02-2021 08:10:00 0.9 C 90 % -0.55 C
88 28-02-2021 08:15:00 0.9 C 91 % -0.4 C
89 28-02-2021 08:20:00 1 C 91 % -0.3 C
90 28-02-2021 08:25:00 1.1 C 91 % -0.2 C
91 28-02-2021 08:30:00 1.1 C 91 % -0.2 C
92 28-02-2021 08:35:00 1.1 C 91 % -0.2 C
93 28-02-2021 08:40:00 1.2 C 92 % 0.05 C
94 28-02-2021 08:45:00 1.2 C 92 % 0.05 C
95 28-02-2021 08:50:00 1.3 C 92 % 0.15 C
96 28-02-2021 08:55:00 1.3 C 92 % 0.15 C
97 28-02-2021 09:00:00 1.3 C 92 % 0.15 C
98 28-02-2021 09:05:00 1.4 C 92 % 0.25 C
99 28-02-2021 09:10:00 1.4 C 92 % 0.25 C
100 28-02-2021 09:15:00 1.5 C 92 % 0.35 C
Sensor: Nr:Datum:Temp:Feuchte:Taupunkt:
Aussen-T/F 101 28-02-2021 09:20:00 1.6 C 92 % 0.44 C
102 28-02-2021 09:25:00 1.6 C 92 % 0.44 C
103 28-02-2021 09:30:00 1.7 C 92 % 0.54 C
104 28-02-2021 09:35:00 1.7 C 92 % 0.54 C
105 28-02-2021 09:40:00 1.8 C 92 % 0.64 C
106 28-02-2021 09:45:00 1.9 C 92 % 0.74 C
107 28-02-2021 09:50:00 1.9 C 92 % 0.74 C
108 28-02-2021 09:55:00 2.1 C 92 % 0.94 C
109 28-02-2021 10:00:00 2.2 C 92 % 1.04 C
110 28-02-2021 10:05:00 2.3 C 92 % 1.14 C
111 28-02-2021 10:10:00 2.4 C 92 % 1.24 C
112 28-02-2021 10:15:00 2.7 C 92 % 1.53 C
113 28-02-2021 10:20:00 3 C 91 % 1.68 C
114 28-02-2021 10:25:00 3.4 C 90 % 1.92 C
115 28-02-2021 10:30:00 3.7 C 89 % 2.06 C
116 28-02-2021 10:35:00 4.1 C 87 % 2.14 C
117 28-02-2021 10:40:00 4.3 C 86 % 2.17 C
118 28-02-2021 10:45:00 4.6 C 85 % 2.3 C
119 28-02-2021 10:50:00 4.8 C 82 % 1.99 C
120 28-02-2021 10:55:00 5.1 C 83 % 2.46 C
121 28-02-2021 11:00:00 5.3 C 80 % 2.14 C
122 28-02-2021 11:05:00 5.7 C 79 % 2.35 C
123 28-02-2021 11:10:00 5.9 C 78 % 2.37 C
124 28-02-2021 11:15:00 6.2 C 76 % 2.29 C
125 28-02-2021 11:20:00 6.4 C 76 % 2.49 C
Sensor: Nr:Datum:Temp:Feuchte:Taupunkt:
Aussen-T/F 126 28-02-2021 11:25:00 6.6 C 75 % 2.49 C
127 28-02-2021 11:30:00 6.7 C 75 % 2.59 C
128 28-02-2021 11:35:00 6.9 C 74 % 2.6 C
129 28-02-2021 11:40:00 7.1 C 71 % 2.21 C
130 28-02-2021 11:45:00 7.2 C 71 % 2.3 C
131 28-02-2021 11:50:00 7.3 C 71 % 2.4 C
132 28-02-2021 11:55:00 7.4 C 71 % 2.5 C
133 28-02-2021 12:00:00 7.5 C 69 % 2.19 C
134 28-02-2021 12:05:00 7.7 C 70 % 2.58 C
135 28-02-2021 12:10:00 7.8 C 70 % 2.68 C
136 28-02-2021 12:15:00 7.9 C 68 % 2.37 C
137 28-02-2021 12:20:00 8.2 C 68 % 2.66 C
138 28-02-2021 12:25:00 8.3 C 68 % 2.75 C
139 28-02-2021 12:30:00 8.6 C 66 % 2.62 C
140 28-02-2021 12:35:00 8.7 C 66 % 2.71 C
141 28-02-2021 12:40:00 8.8 C 65 % 2.59 C
142 28-02-2021 12:45:00 8.8 C 64 % 2.38 C
143 28-02-2021 12:50:00 8.9 C 65 % 2.69 C
144 28-02-2021 12:55:00 8.9 C 65 % 2.69 C
145 28-02-2021 13:00:00 9.1 C 65 % 2.88 C
146 28-02-2021 13:05:00 9.2 C 65 % 2.97 C
147 28-02-2021 13:10:00 9.3 C 64 % 2.85 C
148 28-02-2021 13:15:00 9.5 C 63 % 2.82 C
149 28-02-2021 13:20:00 9.6 C 63 % 2.91 C
150 28-02-2021 13:25:00 9.8 C 63 % 3.1 C
Sensor: Nr:Datum:Temp:Feuchte:Taupunkt:
Aussen-T/F 151 28-02-2021 13:30:00 9.9 C 61 % 2.74 C
152 28-02-2021 13:35:00 10.1 C 61 % 2.93 C
153 28-02-2021 13:40:00 10.2 C 60 % 2.79 C
154 28-02-2021 13:45:00 10.4 C 60 % 2.98 C
155 28-02-2021 13:50:00 10.6 C 60 % 3.17 C
156 28-02-2021 13:55:00 10.8 C 59 % 3.12 C
157 28-02-2021 14:00:00 11.1 C 57 % 2.92 C
158 28-02-2021 14:05:00 11.3 C 55 % 2.6 C
159 28-02-2021 14:10:00 11.4 C 55 % 2.69 C
160 28-02-2021 14:15:00 11.5 C 55 % 2.79 C
161 28-02-2021 14:20:00 11.4 C 54 % 2.44 C
162 28-02-2021 14:25:00 11.3 C 53 % 2.08 C
163 28-02-2021 14:30:00 11.3 C 52 % 1.81 C
164 28-02-2021 14:35:00 11.2 C 52 % 1.72 C
165 28-02-2021 14:40:00 11.3 C 54 % 2.34 C
166 28-02-2021 14:45:00 11.3 C 53 % 2.08 C
167 28-02-2021 14:50:00 11.3 C 52 % 1.81 C
168 28-02-2021 14:55:00 11.3 C 54 % 2.34 C
169 28-02-2021 15:00:00 11.3 C 51 % 1.54 C
170 28-02-2021 15:05:00 11.4 C 51 % 1.64 C
171 28-02-2021 15:10:00 11.4 C 52 % 1.91 C
172 28-02-2021 15:15:00 11.5 C 50 % 1.45 C
173 28-02-2021 15:20:00 11.5 C 51 % 1.73 C
174 28-02-2021 15:25:00 11.5 C 55 % 2.79 C
175 28-02-2021 15:30:00 11.6 C 51 % 1.82 C
Sensor: Nr:Datum:Temp:Feuchte:Taupunkt:
Aussen-T/F 176 28-02-2021 15:35:00 11.7 C 51 % 1.91 C
177 28-02-2021 15:40:00 11.8 C 48 % 1.16 C
178 28-02-2021 15:45:00 11.8 C 48 % 1.16 C
179 28-02-2021 15:50:00 12 C 49 % 1.63 C
180 28-02-2021 15:55:00 12.1 C 48 % 1.44 C
181 28-02-2021 16:00:00 12.2 C 49 % 1.82 C
182 28-02-2021 16:05:00 12.3 C 48 % 1.62 C
183 28-02-2021 16:10:00 12.3 C 48 % 1.62 C
184 28-02-2021 16:15:00 12.3 C 47 % 1.33 C
185 28-02-2021 16:20:00 12.4 C 52 % 2.83 C
186 28-02-2021 16:25:00 12.4 C 49 % 2 C
187 28-02-2021 16:30:00 12.4 C 48 % 1.71 C
188 28-02-2021 16:35:00 12.4 C 49 % 2 C
189 28-02-2021 16:40:00 12.4 C 45 % 0.81 C
190 28-02-2021 16:45:00 12.4 C 44 % 0.5 C
191 28-02-2021 16:50:00 12.4 C 51 % 2.56 C
192 28-02-2021 16:55:00 12.3 C 49 % 1.91 C
193 28-02-2021 17:00:00 12.3 C 50 % 2.19 C
194 28-02-2021 17:05:00 12.4 C 51 % 2.56 C
195 28-02-2021 17:10:00 12.4 C 54 % 3.36 C
196 28-02-2021 17:15:00 12.4 C 55 % 3.62 C
197 28-02-2021 17:20:00 12.5 C 51 % 2.65 C
198 28-02-2021 17:25:00 12.5 C 53 % 3.19 C
199 28-02-2021 17:30:00 12.4 C 56 % 3.88 C
200 28-02-2021 17:35:00 12.2 C 56 % 3.69 C
Sensor: Nr:Datum:Temp:Feuchte:Taupunkt:
Aussen-T/F 201 28-02-2021 17:40:00 11.9 C 58 % 3.91 C
202 28-02-2021 17:45:00 11.5 C 58 % 3.54 C
203 28-02-2021 17:50:00 11.1 C 59 % 3.4 C
204 28-02-2021 17:55:00 10.5 C 60 % 3.08 C
205 28-02-2021 18:00:00 9.9 C 62 % 2.97 C
206 28-02-2021 18:05:00 9.4 C 63 % 2.72 C
207 28-02-2021 18:10:00 8.9 C 65 % 2.69 C
208 28-02-2021 18:15:00 8.4 C 66 % 2.43 C
209 28-02-2021 18:20:00 8 C 68 % 2.47 C
210 28-02-2021 18:25:00 7.6 C 69 % 2.29 C
211 28-02-2021 18:30:00 7.3 C 70 % 2.2 C
212 28-02-2021 18:35:00 7.1 C 71 % 2.21 C
213 28-02-2021 18:40:00 6.8 C 72 % 2.12 C
214 28-02-2021 18:45:00 6.6 C 72 % 1.92 C
215 28-02-2021 18:50:00 6.4 C 73 % 1.92 C
216 28-02-2021 18:55:00 6.3 C 74 % 2.02 C
217 28-02-2021 19:00:00 6.2 C 74 % 1.92 C
218 28-02-2021 19:05:00 6 C 75 % 1.91 C
219 28-02-2021 19:10:00 5.9 C 75 % 1.82 C
220 28-02-2021 19:15:00 5.8 C 76 % 1.91 C
221 28-02-2021 19:20:00 5.7 C 76 % 1.81 C
222 28-02-2021 19:25:00 5.6 C 77 % 1.89 C
223 28-02-2021 19:30:00 5.5 C 77 % 1.8 C
224 28-02-2021 19:35:00 5.4 C 78 % 1.88 C
225 28-02-2021 19:40:00 5.3 C 78 % 1.78 C
Sensor: Nr:Datum:Temp:Feuchte:Taupunkt:
Aussen-T/F 226 28-02-2021 19:45:00 5.2 C 79 % 1.86 C
227 28-02-2021 19:50:00 5.2 C 79 % 1.86 C
228 28-02-2021 19:55:00 5.1 C 80 % 1.94 C
229 28-02-2021 20:00:00 4.9 C 80 % 1.75 C
230 28-02-2021 20:05:00 4.8 C 81 % 1.82 C
231 28-02-2021 20:10:00 4.8 C 81 % 1.82 C
232 28-02-2021 20:15:00 4.7 C 81 % 1.73 C
233 28-02-2021 20:20:00 4.6 C 82 % 1.8 C
234 28-02-2021 20:25:00 4.5 C 82 % 1.7 C
235 28-02-2021 20:30:00 4.4 C 82 % 1.6 C
236 28-02-2021 20:35:00 4.3 C 83 % 1.67 C
237 28-02-2021 20:40:00 4.2 C 83 % 1.58 C
238 28-02-2021 20:45:00 4.1 C 83 % 1.48 C
239 28-02-2021 20:50:00 4 C 84 % 1.55 C
240 28-02-2021 20:55:00 3.8 C 84 % 1.35 C
241 28-02-2021 21:00:00 3.8 C 84 % 1.35 C
242 28-02-2021 21:05:00 3.6 C 84 % 1.16 C
243 28-02-2021 21:10:00 3.4 C 84 % 0.96 C
244 28-02-2021 21:15:00 3.3 C 85 % 1.03 C
245 28-02-2021 21:20:00 3.2 C 85 % 0.93 C
246 28-02-2021 21:25:00 3.1 C 86 % 0.99 C
247 28-02-2021 21:30:00 2.9 C 87 % 0.96 C
248 28-02-2021 21:35:00 2.9 C 87 % 0.96 C
249 28-02-2021 21:40:00 2.9 C 88 % 1.11 C
250 28-02-2021 21:45:00 2.9 C 88 % 1.11 C
Sensor: Nr:Datum:Temp:Feuchte:Taupunkt:
Aussen-T/F 251 28-02-2021 21:50:00 2.9 C 88 % 1.11 C
252 28-02-2021 21:55:00 2.8 C 88 % 1.02 C
253 28-02-2021 22:00:00 2.7 C 88 % 0.92 C
254 28-02-2021 22:05:00 2.6 C 88 % 0.82 C
255 28-02-2021 22:10:00 2.6 C 89 % 0.97 C
256 28-02-2021 22:15:00 2.5 C 89 % 0.88 C
257 28-02-2021 22:20:00 2.4 C 89 % 0.78 C
258 28-02-2021 22:25:00 2.3 C 89 % 0.68 C
259 28-02-2021 22:30:00 2.3 C 89 % 0.68 C
260 28-02-2021 22:35:00 2.1 C 89 % 0.48 C
261 28-02-2021 22:40:00 2.1 C 89 % 0.48 C
262 28-02-2021 22:45:00 2 C 89 % 0.38 C
263 28-02-2021 22:50:00 1.9 C 89 % 0.28 C
264 28-02-2021 22:55:00 1.8 C 89 % 0.19 C

Legende:
   Min
   Max


Maximal/Minimal-Werte vom 28.02.2021 - 28.02.2021

Sensor Min Max Avg
Temp
(Aussen-T/F)
0.9 °C
28-02-2021  08:10:00
12.5 °C
28-02-2021  17:20:00
6.05 °C
Feuchte
(Aussen-T/F)
44 %
28-02-2021  16:45:00
92 %
28-02-2021  08:40:00
75.29 %
Taupunkt
(Aussen-T/F)
-0.55 C
28-02-2021  08:10:00
3.91 C
28-02-2021  17:40:00
1.72 C

Die Daten stammen von einer Davis Vantage Pro 2 Wetter-Station und werden unter Linux mit der Software wview2wettercgi und aufbereitet. Alle Angaben erfolgen ohne Gewähr für ihre Vollständigkeit oder Richtigkeit.
Kontakt: Rainer Krienke krienke@uni-koblenz.de . Meine Webseiten an der Uni Koblenz oder privat.
Version: $Revision: 0.78 $